[[{"header":{"parameterUnit":"m.s-1","parameterCategory":1,"la1":30.2991,"la2":30.254,"lo1":-89.0895,"lo2":-89.0444,"dy":0.0017,"dx":0.0017,"nx":28,"ny":28,"refTime":"2024-05-30T09:00:00:Z","depth":0,"parameterNumber":2,"parameterNumberName":"U-component_of_WINDS"},"data":[0,0,0,0,0,0,0,0,0,0,0,0,0,0,0,0,0,0,0,0,0,0,0,0,0,0,0,0,0,0,0,0,0,0,0,0,0,0,0,0,0,0,0,0,0,0,0,0,0,0,0,0,0,0,0,0,0,0,-5.2076,-5.2076,0,-5.2113,-5.2113,-5.2114,-5.2076,-5.2075,-5.2073,-5.2072,-5.2107,-5.211,-5.2112,0,0,0,0,0,0,0,0,0,0,0,0,0,-5.1973,-5.1975,-5.2076,-5.2076,-5.2077,-5.2113,-5.2113,-5.2114,-5.2077,-5.2075,-5.2073,-5.2071,-5.2107,-5.2109,-5.2112,0,0,0,0,0,0,0,0,0,0,0,0,0,-5.2014,-5.1975,-5.2076,-5.2063,-5.2062,-5.2113,-5.2113,-5.2114,-5.2077,-5.2075,-5.2073,-5.2071,-5.2106,-5.2109,-5.2113,-5.2177,0,0,-5.2123,-5.2125,0,0,0,0,0,0,0,0,-5.2012,-5.2018,-5.2064,-5.2064,-5.2063,-5.2088,-5.209,-5.2135,-5.2078,-5.2071,-5.2072,-5.207,-5.2103,-5.2106,-5.2118,-5.2179,-5.218,-5.2123,-5.2125,-5.2127,-5.2128,0,0,0,0,0,0,0,-5.2009,-5.2016,-5.209,-5.2065,-5.2064,-5.2055,-5.2058,-5.2098,-5.2098,-5.2072,-5.2069,-5.2074,-5.2102,-5.2114,-5.2118,-5.2181,-5.2123,-5.2126,-5.2128,-5.213,-5.2298,-5.23,0,0,0,0,0,0,-5.2008,-5.2014,-5.2089,-5.2091,-5.2032,-5.2058,-5.2062,-5.2082,-5.2098,-5.2098,-5.2076,-5.2072,-5.211,-5.2114,-5.2119,-5.2196,-5.2127,-5.213,-5.2132,-5.2296,-5.2298,-5.2301,0,0,0,0,0,0,-5.2006,-5.2015,-5.2088,-5.2052,-5.2061,-5.2062,-5.2085,-5.2084,-5.2096,-5.2101,-5.2101,-5.2089,-5.2108,-5.2114,-5.2163,-5.2196,-5.2132,-5.2135,-5.2293,-5.2296,-5.23,-5.2349,0,0,0,0,0,0,-5.2003,-5.2014,-5.2039,-5.2053,-5.2063,-5.2131,-5.2087,-5.2086,-5.2103,-5.2098,-5.2113,-5.2114,-5.2107,-5.2159,-5.2167,-5.22,-5.2137,-5.229,-5.2294,-5.2299,-5.2344,-5.2354,-5.2362,0,0,0,0,0,-5.1999,-5.2051,-5.204,-5.205,-5.2094,-5.2133,-5.2139,-5.2131,-5.2106,-5.213,-5.2134,-5.2113,-5.2192,-5.2164,-5.2173,-5.2207,-5.2288,-5.2293,-5.2298,-5.234,-5.2352,-5.2362,0,0,0,0,0,0,-5.2039,-5.2052,-5.2041,-5.2098,-5.2115,-5.2127,-5.2157,-5.2143,-5.2167,-5.2161,-5.215,-5.2154,-5.2205,-5.2212,-5.218,-5.2272,-5.2236,-5.2243,-5.2265,-5.2276,-5.2284,-5.228,-5.214,0,0,0,0,0,-5.2055,-5.2086,-5.2096,-5.2146,-5.2155,-5.2155,-5.2172,-5.2165,-5.2181,-5.2188,-5.2195,-5.2211,-5.224,-5.2259,-5.2285,-5.2347,-5.2349,-5.2375,-5.2384,-5.2391,-5.2397,-5.243,-5.2441,-5.2319,-5.2319,-5.2319,0,0,-5.2086,-5.2098,-5.2118,-5.2154,-5.2166,-5.2199,-5.2161,-5.2197,-5.2221,-5.2193,-5.2239,-5.2246,-5.2264,-5.2319,-5.2344,-5.2326,-5.2432,-5.2398,-5.2404,-5.2405,-5.2436,-5.2448,-5.2458,-5.2323,-5.2322,-5.2321,0,0,-5.216,-5.2173,-5.2216,-5.2229,-5.2249,-5.2249,-5.226,-5.2275,-5.2278,-5.2325,-5.2305,-5.2334,-5.2383,-5.2397,-5.241,-5.2493,-5.2475,-5.2503,-5.2547,-5.2579,-5.2589,-5.2597,-5.2626,-5.2636,-5.2509,-5.2509,-5.2509,0,-5.2197,-5.2246,-5.2239,-5.2277,-5.2293,-5.2272,-5.2315,-5.2329,-5.2356,-5.2367,-5.2348,-5.241,-5.2421,-5.2479,-5.25,-5.2512,-5.2523,-5.2499,-5.2588,-5.2597,-5.2604,-5.2631,-5.2642,-5.2512,-5.2512,-5.2511,-5.2511,0,-5.2289,-5.2324,-5.2356,-5.2384,-5.2404,-5.2445,-5.2444,-5.2466,-5.2458,-5.246,-5.2509,-5.2522,-5.255,-5.2564,-5.2556,-5.2622,-5.261,-5.259,-5.2553,-5.2619,-5.2644,-5.2654,-5.2516,-5.2515,-5.2514,-5.2514,0,0,-5.2385,-5.2412,-5.2423,-5.2436,-5.2458,-5.2484,-5.2524,-5.2553,-5.2572,-5.2592,-5.2625,-5.2669,-5.2651,-5.2666,-5.266,-5.2689,-5.2753,-5.2665,-5.2665,-5.2679,-5.2825,-5.2838,-5.285,-5.2743,-5.2745,-5.2746,-5.2823,0,-5.2459,-5.2528,-5.2525,-5.259,-5.2621,-5.2603,-5.2638,-5.2655,-5.266,-5.2687,-5.2692,-5.2723,-5.2697,-5.2706,-5.2734,-5.2739,-5.2782,-5.2734,-5.2772,-5.2773,-5.2765,-5.2864,-5.2877,-5.2949,-5.2833,-5.2835,-5.2836,0,-5.2553,-5.2578,-5.2646,-5.2664,-5.2677,-5.2709,-5.2736,-5.2763,-5.2783,-5.2784,-5.2803,-5.2793,-5.2833,-5.2799,-5.2854,-5.2822,-5.2838,-5.2843,-5.2845,-5.2846,-5.2806,-5.2865,-5.2972,-5.2981,-5.2851,-5.285,-5.2849,0,-5.2614,-5.2665,-5.2712,-5.2724,-5.2747,-5.2769,-5.278,-5.2798,-5.2816,-5.2841,-5.2852,-5.2881,-5.2896,-5.2919,-5.2917,-5.2892,-5.2973,-5.2938,-5.2974,-5.2974,-5.2989,-5.2987,-5.3097,-5.3004,-5.3004,-5.3003,-5.3003,0,-5.2694,-5.2736,-5.274,-5.2769,-5.2816,-5.2813,-5.2859,-5.2867,-5.2884,-5.2914,-5.2901,-5.2929,-5.2927,-5.2956,-5.2955,-5.3,-5.3008,-5.3009,-5.3008,-5.3009,-5.3008,-5.3017,-5.3011,-5.3006,-5.3006,-5.3005,-5.3005,0,-5.2769,-5.2773,-5.2824,-5.2842,-5.2848,-5.2882,-5.2897,-5.2925,-5.293,-5.2968,-5.2977,-5.2984,-5.3017,-5.3019,-5.3057,-5.3057,-5.3112,-5.3107,-5.3105,-5.3103,-5.3138,-5.3134,-5.3255,-5.327,-5.3169,-5.317,-5.3171,0,-5.2818,-5.2851,-5.2874,-5.2893,-5.2906,-5.2938,-5.2957,-5.2956,-5.2976,-5.3003,-5.3027,-5.306,-5.3085,-5.314,-5.3148,-5.3178,-5.3171,-5.3212,-5.3175,-5.3176,-5.317,-5.3167,-5.317,-5.3218,-5.3219,-5.322,-5.3221,0,-5.2906,-5.2907,-5.2936,-5.2966,-5.299,-5.3013,-5.3035,-5.3052,-5.3054,-5.3078,-5.3112,-5.3133,-5.3173,-5.3205,-5.3235,-5.3245,-5.3233,-5.3233,-5.3242,-5.3242,-5.3239,-5.324,-5.3122,-5.3229,-5.3228,-5.3228,-5.3227,-5.3227,-5.2968,-5.2996,-5.3017,-5.305,-5.3067,-5.3088,-5.3115,-5.3124,-5.3153,-5.3186,-5.3184,-5.3222,-5.3243,-5.3281,-5.3295,-5.3325,-5.3311,-5.3325,-5.3328,-5.3331,-5.3334,-5.3237,-5.333,-5.333,-5.333,-5.333,-5.3329,0,-5.3053,-5.3067,-5.3097,-5.3129,-5.3155,-5.3144,-5.3168,-5.319,-5.3224,-5.3245,-5.3271,-5.3311,-5.3344,-5.3356,-5.3387,-5.3409,-5.3404,-5.3417,-5.3414,-5.3416,-5.3345,-5.3333,-5.342,-5.342,-5.342,-5.342,-5.342,-5.342,-5.3101,-5.3147,-5.3151,-5.3206,-5.3219,-5.3257,-5.3272,-5.3292,-5.3308,-5.3354,-5.3381,-5.3389,-5.3407,-5.344,-5.3469,-5.3471,-5.3483,-5.3497,-5.3498,-5.343,-5.3421,-5.3412,-5.3401,-5.35,-5.35,-5.3566,-5.3566,-5.3567]},{"header":{"parameterUnit":"m.s-1","parameterCategory":1,"la1":30.2991,"la2":30.254,"lo1":-89.0895,"lo2":-89.0444,"dy":0.0017,"dx":0.0017,"nx":28,"ny":28,"refTime":"2024-05-30T09:00:00:Z","depth":0,"parameterNumber":3,"parameterNumberName":"V-component_of_WINDS"},"data":[0,0,0,0,0,0,0,0,0,0,0,0,0,0,0,0,0,0,0,0,0,0,0,0,0,0,0,0,0,0,0,0,0,0,0,0,0,0,0,0,0,0,0,0,0,0,0,0,0,0,0,0,0,0,0,0,0,0,4.1146,4.1146,0,4.1144,4.1144,4.1144,4.1166,4.1166,4.1167,4.1168,4.116,4.1159,4.1158,0,0,0,0,0,0,0,0,0,0,0,0,0,4.1165,4.1164,4.1146,4.1146,4.1146,4.1144,4.1144,4.1144,4.1166,4.1166,4.1167,4.1168,4.116,4.1159,4.1158,0,0,0,0,0,0,0,0,0,0,0,0,0,4.1159,4.1164,4.1146,4.1157,4.1158,4.1144,4.1144,4.1144,4.1165,4.1166,4.1167,4.1168,4.1161,4.1159,4.1158,4.1132,0,0,4.1155,4.1154,0,0,0,0,0,0,0,0,4.1159,4.1158,4.1155,4.1156,4.1157,4.1156,4.1148,4.114,4.1165,4.1162,4.1168,4.1169,4.1158,4.1157,4.1154,4.1132,4.1132,4.1155,4.1154,4.1153,4.1153,0,0,0,0,0,0,0,4.1159,4.1158,4.1145,4.1155,4.1156,4.116,4.116,4.1146,4.1154,4.1163,4.1164,4.1164,4.1158,4.1155,4.1154,4.1132,4.1155,4.1154,4.1153,4.1152,4.1089,4.1089,0,0,0,0,0,0,4.1159,4.1158,4.1145,4.1145,4.116,4.1159,4.1159,4.1155,4.1155,4.1156,4.1163,4.1165,4.1157,4.1155,4.1154,4.1124,4.1153,4.1152,4.1152,4.109,4.1089,4.1088,0,0,0,0,0,0,4.1159,4.1158,4.1145,4.1152,4.1151,4.1158,4.1153,4.1155,4.1152,4.1155,4.1156,4.1159,4.1157,4.1156,4.1138,4.1124,4.1152,4.1151,4.1092,4.109,4.1089,4.1065,0,0,0,0,0,0,4.116,4.1158,4.1149,4.1152,4.115,4.113,4.1152,4.1154,4.115,4.1153,4.1152,4.1152,4.1158,4.114,4.1137,4.1123,4.115,4.1093,4.1091,4.1089,4.1067,4.1063,4.1059,0,0,0,0,0,4.116,4.114,4.1148,4.1146,4.114,4.113,4.1129,4.1137,4.1149,4.114,4.1142,4.1152,4.1127,4.1138,4.1135,4.1121,4.1094,4.1091,4.1089,4.1068,4.1063,4.1059,0,0,0,0,0,0,4.1133,4.1141,4.1149,4.113,4.1129,4.1133,4.1122,4.1132,4.1126,4.1128,4.1137,4.1137,4.1118,4.1118,4.113,4.1096,4.1112,4.1109,4.1097,4.1092,4.1089,4.1089,4.1149,0,0,0,0,0,4.1125,4.1118,4.1125,4.1107,4.1106,4.1114,4.111,4.1117,4.1116,4.1115,4.1116,4.1113,4.1105,4.1098,4.1091,4.1067,4.1067,4.1056,4.1052,4.1049,4.1046,4.1034,4.1029,4.1081,4.1081,4.1081,0,0,4.1108,4.1112,4.1106,4.1102,4.1102,4.1093,4.1113,4.1103,4.1096,4.1113,4.1097,4.1098,4.1095,4.1075,4.1066,4.1074,4.1032,4.1046,4.1044,4.1042,4.1031,4.1027,4.1022,4.108,4.108,4.108,0,0,4.1073,4.1075,4.1061,4.1061,4.1062,4.1068,4.1064,4.1067,4.1069,4.1054,4.1067,4.1059,4.1043,4.1041,4.1038,4.1004,4.1013,4.1001,4.0981,4.0969,4.0965,4.0962,4.095,4.0945,4.0999,4.0999,4.0999,0,4.1051,4.104,4.1052,4.1041,4.1039,4.1056,4.1042,4.1041,4.1038,4.1036,4.1045,4.1028,4.1027,4.1007,4.0999,4.0996,4.0992,4.1001,4.0965,4.0962,4.0959,4.0947,4.0943,4.0997,4.0997,4.0997,4.0998,0,4.1013,4.1005,4.0993,4.0993,4.0989,4.0977,4.0986,4.0981,4.0989,4.0993,4.0978,4.0978,4.0971,4.0967,4.0974,4.0948,4.0954,4.0964,4.098,4.0952,4.0942,4.0937,4.0995,4.0996,4.0996,4.0996,0,0,4.0959,4.0967,4.0963,4.0963,4.0966,4.096,4.0948,4.0943,4.0939,4.0937,4.0927,4.0915,4.0925,4.0922,4.0928,4.0918,4.0892,4.093,4.093,4.0923,4.0865,4.0857,4.0851,4.0899,4.0898,4.0897,4.0865,0,4.0924,4.0907,4.0918,4.0898,4.0891,4.0908,4.0897,4.0897,4.0902,4.0895,4.0899,4.0891,4.0905,4.0903,4.0894,4.0897,4.088,4.09,4.0888,4.0888,4.0888,4.0846,4.0837,4.0807,4.0861,4.086,4.086,0,4.0882,4.0881,4.086,4.0866,4.0864,4.0854,4.0852,4.0846,4.0846,4.085,4.0848,4.0857,4.0845,4.0862,4.0845,4.0858,4.0855,4.0856,4.0855,4.0853,4.0872,4.0843,4.0797,4.0793,4.0853,4.0854,4.0854,0,4.0845,4.0838,4.0825,4.0825,4.0832,4.0825,4.0827,4.0829,4.0826,4.0823,4.0821,4.0816,4.0813,4.0809,4.0817,4.0828,4.0799,4.0816,4.0801,4.0801,4.0794,4.0794,4.0746,4.0792,4.0792,4.0792,4.0792,0,4.0806,4.0792,4.0809,4.0801,4.0787,4.08,4.0785,4.0789,4.0791,4.0783,4.0797,4.0789,4.08,4.0793,4.0799,4.0785,4.0783,4.0785,4.0787,4.0784,4.0784,4.0781,4.0783,4.0791,4.0791,4.0791,4.0791,0,4.0762,4.0772,4.076,4.0768,4.0769,4.0758,4.0765,4.0757,4.0763,4.0754,4.0752,4.076,4.0753,4.0761,4.0754,4.0758,4.0739,4.0743,4.0739,4.074,4.0725,4.0726,4.0673,4.0667,4.0717,4.0716,4.0716,0,4.0736,4.0727,4.0734,4.0731,4.0733,4.0728,4.0725,4.0738,4.0735,4.0736,4.0728,4.0723,4.0719,4.0707,4.0711,4.0706,4.0711,4.0693,4.071,4.0708,4.0711,4.0711,4.071,4.0689,4.0688,4.0688,4.0687,0,4.0689,4.0695,4.0692,4.0691,4.0689,4.0688,4.0688,4.0685,4.0698,4.0694,4.0688,4.0685,4.0679,4.0673,4.067,4.0671,4.0681,4.0682,4.0678,4.0675,4.0673,4.0674,4.0729,4.0683,4.0683,4.0684,4.0684,4.0684,4.0653,4.0646,4.0651,4.0648,4.065,4.065,4.0644,4.065,4.0646,4.0643,4.0651,4.0643,4.0645,4.0642,4.0641,4.0635,4.0643,4.0637,4.0636,4.0634,4.0632,4.0675,4.0634,4.0634,4.0635,4.0635,4.0635,0,4.0607,4.0612,4.0609,4.061,4.0607,4.0619,4.062,4.0617,4.0611,4.0612,4.0609,4.0602,4.0597,4.0603,4.0598,4.0592,4.0597,4.0591,4.0591,4.0591,4.0625,4.0629,4.0587,4.0587,4.0587,4.0587,4.0587,4.0587,4.0583,4.0572,4.0579,4.0569,4.0574,4.0568,4.0567,4.0568,4.0569,4.0562,4.0559,4.0563,4.0566,4.0562,4.0558,4.056,4.0557,4.055,4.0553,4.0584,4.0589,4.0593,4.0597,4.0549,4.0549,4.0519,4.0519,4.0519]}]]